Wetterdaten: Montag, 17.08.2026
Datum Zeit Außen Temp. Server Temp. +20m Feuchte Feuchte +20m Luftdruck Regen Wind Richtung Richtung Sonnenschein Helligkeit Solar Taupunkt
17.08.2026 00:00 19,1 °C 24,3 °C 19,2 °C 64 % 45 % 1013,1 hPa 0,00 l/m² 51,3 km/h (7 Bft) S-SW 195 ° 0 min 0 lux 0 W/m² 12,1 °C
17.08.2026 00:15 18,8 °C 24,3 °C 18,8 °C 65 % 45 % 1013,1 hPa 0,00 l/m² 51,3 km/h (7 Bft) S-SW 195 ° 0 min 0 lux 0 W/m² 12,1 °C
17.08.2026 00:30 18,5 °C 24,3 °C 18,2 °C 67 % 47 % 1013,2 hPa 0,00 l/m² 51,3 km/h (7 Bft) S-SW 195 ° 0 min 0 lux 0 W/m² 12,3 °C
17.08.2026 00:45 18,0 °C 24,3 °C 17,8 °C 69 % 48 % 1013,2 hPa 0,00 l/m² 51,3 km/h (7 Bft) S-SW 195 ° 0 min 0 lux 0 W/m² 12,2 °C
17.08.2026 01:00 17,4 °C 24,3 °C 17,3 °C 71 % 49 % 1013,3 hPa 0,00 l/m² 51,3 km/h (7 Bft) S-SW 195 ° 0 min 0 lux 0 W/m² 12,1 °C
17.08.2026 01:15 17,4 °C 24,3 °C 17,3 °C 71 % 49 % 1013,3 hPa 0,00 l/m² 51,3 km/h (7 Bft) S-SW 195 ° 0 min 0 lux 0 W/m² 12,1 °C
17.08.2026 01:30 17,3 °C 24,3 °C 17,1 °C 71 % 50 % 1013,3 hPa 0,00 l/m² 51,3 km/h (7 Bft) S-SW 195 ° 0 min 0 lux 0 W/m² 12,0 °C
17.08.2026 01:45 17,0 °C 24,3 °C 16,8 °C 72 % 50 % 1013,3 hPa 0,00 l/m² 51,3 km/h (7 Bft) S-SW 195 ° 0 min 0 lux 0 W/m² 11,9 °C
17.08.2026 02:00 16,7 °C 24,3 °C 16,5 °C 72 % 51 % 1013,4 hPa 0,00 l/m² 51,3 km/h (7 Bft) S-SW 195 ° 0 min 0 lux 0 W/m² 11,6 °C
17.08.2026 02:15 16,4 °C 24,3 °C 16,0 °C 74 % 52 % 1013,4 hPa 0,00 l/m² 51,3 km/h (7 Bft) S-SW 195 ° 0 min 0 lux 0 W/m² 11,8 °C
17.08.2026 02:30 16,1 °C 24,3 °C 15,5 °C 74 % 53 % 1013,4 hPa 0,00 l/m² 51,3 km/h (7 Bft) S-SW 195 ° 0 min 0 lux 0 W/m² 11,5 °C
17.08.2026 02:45 15,7 °C 24,3 °C 15,3 °C 75 % 54 % 1013,5 hPa 0,00 l/m² 51,3 km/h (7 Bft) S-SW 195 ° 0 min 0 lux 0 W/m² 11,3 °C
17.08.2026 03:00 15,7 °C 24,3 °C 15,1 °C 75 % 55 % 1013,5 hPa 0,00 l/m² 51,3 km/h (7 Bft) S-SW 195 ° 0 min 0 lux 0 W/m² 11,3 °C
17.08.2026 03:15 15,3 °C 24,3 °C 14,7 °C 76 % 56 % 1013,5 hPa 0,00 l/m² 51,3 km/h (7 Bft) S-SW 195 ° 0 min 0 lux 0 W/m² 11,1 °C
17.08.2026 03:30 15,1 °C 24,3 °C 14,6 °C 76 % 57 % 1013,5 hPa 0,00 l/m² 51,3 km/h (7 Bft) S-SW 195 ° 0 min 0 lux 0 W/m² 10,9 °C
17.08.2026 03:45 14,9 °C 24,3 °C 14,5 °C 77 % 57 % 1013,5 hPa 0,00 l/m² 51,3 km/h (7 Bft) S-SW 195 ° 0 min 0 lux 0 W/m² 10,9 °C
17.08.2026 04:00 15,0 °C 24,3 °C 14,3 °C 76 % 57 % 1012,5 hPa 0,00 l/m² 51,3 km/h (7 Bft) S-SW 195 ° 0 min 0 lux 0 W/m² 10,8 °C
17.08.2026 04:15 14,9 °C 24,3 °C 14,2 °C 76 % 58 % 1012,5 hPa 0,00 l/m² 51,3 km/h (7 Bft) S-SW 195 ° 0 min 0 lux 0 W/m² 10,7 °C
17.08.2026 04:30 14,7 °C 24,3 °C 14,3 °C 76 % 56 % 1012,5 hPa 0,00 l/m² 51,3 km/h (7 Bft) S-SW 195 ° 0 min 0 lux 0 W/m² 10,5 °C
17.08.2026 04:45 14,6 °C 24,3 °C 14,1 °C 76 % 57 % 1012,5 hPa 0,00 l/m² 51,3 km/h (7 Bft) S-SW 195 ° 0 min 0 lux 0 W/m² 10,4 °C
17.08.2026 05:00 14,3 °C 24,3 °C 13,8 °C 77 % 58 % 1012,6 hPa 0,00 l/m² 51,3 km/h (7 Bft) S-SW 195 ° 0 min 0 lux 0 W/m² 10,3 °C
17.08.2026 05:15 14,1 °C 24,3 °C 13,5 °C 77 % 60 % 1012,6 hPa 0,00 l/m² 51,3 km/h (7 Bft) S-SW 195 ° 0 min 0 lux 0 W/m² 10,1 °C
17.08.2026 05:30 13,8 °C 24,3 °C 13,4 °C 78 % 61 % 1012,6 hPa 0,00 l/m² 51,3 km/h (7 Bft) S-SW 195 ° 0 min 0 lux 0 W/m² 10,0 °C
17.08.2026 05:45 13,8 °C 24,3 °C 13,1 °C 79 % 63 % 1012,6 hPa 0,00 l/m² 51,3 km/h (7 Bft) S-SW 195 ° 0 min 0 lux 0 W/m² 10,2 °C
17.08.2026 06:00 13,8 °C 24,3 °C 13,1 °C 78 % 63 % 1012,6 hPa 0,00 l/m² 51,3 km/h (7 Bft) S-SW 195 ° 0 min 155 lux 0 W/m² 10,0 °C
17.08.2026 06:15 13,5 °C 24,3 °C 13,0 °C 79 % 65 % 1012,7 hPa 0,00 l/m² 51,3 km/h (7 Bft) S-SW 195 ° 0 min 495 lux 3 W/m² 9,9 °C
17.08.2026 06:30 13,6 °C 24,3 °C 13,1 °C 79 % 67 % 1012,6 hPa 0,00 l/m² 51,3 km/h (7 Bft) S-SW 195 ° 0 min 1,82 klux 12 W/m² 10,0 °C
17.08.2026 06:45 14,0 °C 24,3 °C 14,3 °C 78 % 68 % 1012,6 hPa 0,00 l/m² 51,3 km/h (7 Bft) S-SW 195 ° 0 min 3,82 klux 25 W/m² 10,2 °C
17.08.2026 07:00 14,4 °C 24,3 °C 14,5 °C 78 % 52 % 1012,6 hPa 0,00 l/m² 51,3 km/h (7 Bft) S-SW 195 ° 0 min 5,24 klux 34 W/m² 10,6 °C
17.08.2026 07:15 14,9 °C 24,3 °C 14,8 °C 77 % 51 % 1012,5 hPa 0,00 l/m² 51,3 km/h (7 Bft) S-SW 195 ° 0 min 5,58 klux 36 W/m² 10,9 °C
17.08.2026 07:30 15,1 °C 24,3 °C 15,0 °C 76 % 49 % 1012,5 hPa 0,00 l/m² 51,3 km/h (7 Bft) S-SW 195 ° 0 min 4,02 klux 26 W/m² 10,9 °C
17.08.2026 07:45 15,2 °C 24,3 °C 14,9 °C 76 % 49 % 1012,5 hPa 0,00 l/m² 51,3 km/h (7 Bft) S-SW 195 ° 0 min 2,15 klux 14 W/m² 11,0 °C
17.08.2026 08:00 15,3 °C 24,3 °C 15,2 °C 76 % 50 % 1012,5 hPa 0,00 l/m² 51,3 km/h (7 Bft) S-SW 195 ° 0 min 4,10 klux 27 W/m² 11,1 °C
17.08.2026 08:15 15,6 °C 24,3 °C 15,6 °C 76 % 49 % 1012,4 hPa 0,00 l/m² 51,3 km/h (7 Bft) S-SW 195 ° 0 min 5,26 klux 34 W/m² 11,4 °C
17.08.2026 08:30 15,9 °C 24,3 °C 15,7 °C 76 % 49 % 1012,4 hPa 0,00 l/m² 51,3 km/h (7 Bft) S-SW 195 ° 0 min 10,0 klux 65 W/m² 11,7 °C
17.08.2026 08:45 15,8 °C 24,3 °C 15,5 °C 75 % 49 % 1012,4 hPa 0,00 l/m² 51,3 km/h (7 Bft) S-SW 195 ° 0 min 7,99 klux 52 W/m² 11,4 °C
17.08.2026 09:00 15,8 °C 24,3 °C 15,4 °C 76 % 50 % 1012,4 hPa 0,00 l/m² 51,3 km/h (7 Bft) S-SW 195 ° 0 min 5,44 klux 35 W/m² 11,6 °C
17.08.2026 09:15 15,8 °C 24,3 °C 15,8 °C 77 % 51 % 1012,4 hPa 0,00 l/m² 51,3 km/h (7 Bft) S-SW 195 ° 0 min 6,56 klux 43 W/m² 11,8 °C
17.08.2026 09:30 16,6 °C 24,3 °C 16,7 °C 75 % 48 % 1012,3 hPa 0,00 l/m² 51,3 km/h (7 Bft) S-SW 195 ° 0 min 15,3 klux 100 W/m² 12,1 °C
17.08.2026 09:45 16,8 °C 24,3 °C 17,3 °C 74 % 46 % 1012,3 hPa 0,00 l/m² 51,3 km/h (7 Bft) S-SW 195 ° 0 min 10,2 klux 66 W/m² 12,1 °C
17.08.2026 10:00 17,3 °C 24,3 °C 17,7 °C 73 % 46 % 1012,3 hPa 0,00 l/m² 51,3 km/h (7 Bft) S-SW 195 ° 0 min 11,3 klux 74 W/m² 12,4 °C
17.08.2026 10:15 17,0 °C 24,3 °C 17,5 °C 73 % 46 % 1013,3 hPa 0,00 l/m² 51,3 km/h (7 Bft) S-SW 195 ° 0 min 13,9 klux 91 W/m² 12,1 °C
17.08.2026 10:30 17,7 °C 24,3 °C 18,0 °C 72 % 45 % 1013,3 hPa 0,00 l/m² 51,3 km/h (7 Bft) S-SW 195 ° 0 min 16,6 klux 108 W/m² 12,6 °C
17.08.2026 10:45 17,9 °C 24,3 °C 18,8 °C 71 % 44 % 1013,2 hPa 0,00 l/m² 51,3 km/h (7 Bft) S-SW 195 ° 0 min 20,5 klux 134 W/m² 12,6 °C
17.08.2026 11:00 18,9 °C 24,3 °C 20,2 °C 69 % 41 % 1013,1 hPa 0,00 l/m² 51,3 km/h (7 Bft) S-SW 195 ° 0 min 26,8 klux 175 W/m² 13,1 °C
17.08.2026 11:15 19,2 °C 24,3 °C 20,3 °C 65 % 40 % 1013,1 hPa 0,00 l/m² 51,3 km/h (7 Bft) S-SW 195 ° 0 min 20,1 klux 131 W/m² 12,5 °C
17.08.2026 11:30 19,1 °C 24,3 °C 21,1 °C 66 % 40 % 1012,1 hPa 0,00 l/m² 51,3 km/h (7 Bft) S-SW 195 ° 0 min 23,2 klux 151 W/m² 12,6 °C
17.08.2026 11:45 19,2 °C 24,3 °C 21,1 °C 66 % 40 % 1012,1 hPa 0,00 l/m² 51,3 km/h (7 Bft) S-SW 195 ° 0 min 17,4 klux 113 W/m² 12,7 °C
17.08.2026 12:00 18,9 °C 24,3 °C 19,6 °C 67 % 42 % 1013,1 hPa 0,00 l/m² 51,3 km/h (7 Bft) S-SW 195 ° 0 min 16,9 klux 110 W/m² 12,6 °C
17.08.2026 12:15 18,7 °C 24,3 °C 19,0 °C 69 % 45 % 1012,1 hPa 0,00 l/m² 51,3 km/h (7 Bft) S-SW 195 ° 0 min 24,5 klux 160 W/m² 12,9 °C
17.08.2026 12:30 18,6 °C 24,3 °C 19,2 °C 70 % 46 % 1012,1 hPa 0,00 l/m² 51,3 km/h (7 Bft) S-SW 195 ° 0 min 23,6 klux 154 W/m² 13,0 °C
17.08.2026 12:45 18,6 °C 24,3 °C 19,3 °C 69 % 45 % 1012,1 hPa 0,00 l/m² 51,3 km/h (7 Bft) S-SW 195 ° 0 min 34,3 klux 223 W/m² 12,8 °C
17.08.2026 13:00 18,5 °C 24,3 °C 19,1 °C 69 % 46 % 1012,1 hPa 0,00 l/m² 51,3 km/h (7 Bft) S-SW 195 ° 0 min 30,0 klux 195 W/m² 12,7 °C
17.08.2026 13:15 18,5 °C 24,3 °C 18,9 °C 65 % 43 % 1012,1 hPa 0,00 l/m² 51,3 km/h (7 Bft) S-SW 195 ° 0 min 28,3 klux 184 W/m² 11,8 °C
17.08.2026 13:30 18,0 °C 24,3 °C 18,1 °C 67 % 45 % 1012,2 hPa 0,00 l/m² 51,3 km/h (7 Bft) S-SW 195 ° 0 min 18,5 klux 121 W/m² 11,8 °C
17.08.2026 13:45 17,6 °C 24,3 °C 16,9 °C 70 % 49 % 1013,3 hPa 0,00 l/m² 51,3 km/h (7 Bft) S-SW 195 ° 0 min 11,6 klux 76 W/m² 12,1 °C
17.08.2026 14:00 17,2 °C 24,3 °C 17,3 °C 73 % 50 % 1012,3 hPa 0,00 l/m² 51,3 km/h (7 Bft) S-SW 195 ° 0 min 9,6 klux 63 W/m² 12,3 °C
17.08.2026 14:15 15,7 °C 24,3 °C 16,4 °C 74 % 48 % 1013,5 hPa 0,00 l/m² 51,3 km/h (7 Bft) S-SW 195 ° 0 min 8,76 klux 57 W/m² 11,1 °C
17.08.2026 14:30 16,5 °C 24,3 °C 16,8 °C 72 % 48 % 1013,4 hPa 0,00 l/m² 51,3 km/h (7 Bft) S-SW 195 ° 0 min 12,1 klux 79 W/m² 11,4 °C
17.08.2026 14:45 16,7 °C 24,3 °C 16,9 °C 71 % 49 % 1013,4 hPa 0,00 l/m² 51,3 km/h (7 Bft) S-SW 195 ° 0 min 12,5 klux 81 W/m² 11,4 °C
17.08.2026 15:00 16,9 °C 24,3 °C 16,7 °C 73 % 51 % 1013,3 hPa 0,00 l/m² 51,3 km/h (7 Bft) S-SW 195 ° 0 min 37,7 klux 246 W/m² 12,0 °C
17.08.2026 15:15 17,4 °C 24,3 °C 17,2 °C 72 % 50 % 1013,3 hPa 0,00 l/m² 51,3 km/h (7 Bft) S-SW 195 ° 0 min 22,0 klux 143 W/m² 12,3 °C
17.08.2026 15:30 17,1 °C 24,3 °C 17,2 °C 73 % 51 % 1013,3 hPa 0,00 l/m² 51,3 km/h (7 Bft) S-SW 195 ° 0 min 15,4 klux 100 W/m² 12,2 °C
17.08.2026 15:45 16,9 °C 24,3 °C 17,0 °C 73 % 51 % 1013,3 hPa 0,00 l/m² 51,3 km/h (7 Bft) S-SW 195 ° 0 min 12,2 klux 79 W/m² 12,0 °C
17.08.2026 16:00 17,2 °C 24,3 °C 17,1 °C 73 % 51 % 1013,3 hPa 0,00 l/m² 51,3 km/h (7 Bft) S-SW 195 ° 0 min 18,6 klux 121 W/m² 12,3 °C
17.08.2026 16:15 17,1 °C 24,3 °C 16,9 °C 74 % 52 % 1013,3 hPa 0,00 l/m² 51,3 km/h (7 Bft) S-SW 195 ° 0 min 13,9 klux 91 W/m² 12,4 °C
17.08.2026 16:30 17,2 °C 24,3 °C 17,3 °C 73 % 50 % 1012,3 hPa 0,00 l/m² 51,3 km/h (7 Bft) S-SW 195 ° 0 min 14,0 klux 91 W/m² 12,3 °C
17.08.2026 16:45 16,9 °C 24,3 °C 17,0 °C 73 % 51 % 1013,3 hPa 0,00 l/m² 51,3 km/h (7 Bft) S-SW 195 ° 0 min 10,2 klux 66 W/m² 12,0 °C
17.08.2026 17:00 16,9 °C 24,3 °C 16,9 °C 75 % 52 % 1013,3 hPa 0,00 l/m² 51,3 km/h (7 Bft) S-SW 195 ° 0 min 11,1 klux 72 W/m² 12,4 °C
17.08.2026 17:15 15,3 °C 24,3 °C 15,1 °C 81 % 64 % 1013,5 hPa 0,00 l/m² 51,3 km/h (7 Bft) S-SW 195 ° 0 min 9,8 klux 64 W/m² 12,1 °C
17.08.2026 17:30 14,9 °C 24,3 °C 14,4 °C 80 % 86 % 1013,5 hPa 0,00 l/m² 51,3 km/h (7 Bft) S-SW 195 ° 0 min 8,73 klux 57 W/m² 11,5 °C
17.08.2026 17:45 14,9 °C 24,3 °C 14,7 °C 80 % 86 % 1013,5 hPa 0,00 l/m² 51,3 km/h (7 Bft) S-SW 195 ° 0 min 11,4 klux 74 W/m² 11,5 °C
17.08.2026 18:00 15,1 °C 24,3 °C 14,6 °C 80 % 84 % 1013,5 hPa 0,00 l/m² 51,3 km/h (7 Bft) S-SW 195 ° 0 min 8,02 klux 52 W/m² 11,7 °C
17.08.2026 18:15 15,3 °C 24,3 °C 14,4 °C 80 % 84 % 1013,5 hPa 0,22 l/m² 51,3 km/h (7 Bft) S-SW 195 ° 0 min 6,08 klux 40 W/m² 11,9 °C
17.08.2026 18:30 15,3 °C 24,3 °C 14,5 °C 80 % 84 % 1013,5 hPa 0,00 l/m² 51,3 km/h (7 Bft) S-SW 195 ° 0 min 2,75 klux 18 W/m² 11,9 °C
17.08.2026 18:45 15,6 °C 24,3 °C 14,6 °C 80 % 84 % 1013,5 hPa 0,00 l/m² 51,3 km/h (7 Bft) S-SW 195 ° 0 min 5,87 klux 38 W/m² 12,2 °C
17.08.2026 19:00 16,1 °C 24,3 °C 14,9 °C 81 % 79 % 1012,4 hPa 0,00 l/m² 51,3 km/h (7 Bft) S-SW 195 ° 0 min 10,8 klux 70 W/m² 12,8 °C
17.08.2026 19:15 16,0 °C 24,3 °C 14,9 °C 81 % 79 % 1012,4 hPa 0,00 l/m² 51,3 km/h (7 Bft) S-SW 195 ° 0 min 5,07 klux 33 W/m² 12,7 °C
17.08.2026 19:30 15,7 °C 24,3 °C 14,7 °C 81 % 77 % 1012,4 hPa 0,00 l/m² 51,3 km/h (7 Bft) S-SW 195 ° 0 min 3,40 klux 22 W/m² 12,4 °C
17.08.2026 19:45 15,7 °C 24,3 °C 14,6 °C 81 % 76 % 1012,4 hPa 0,00 l/m² 51,3 km/h (7 Bft) S-SW 195 ° 0 min 2,11 klux 14 W/m² 12,4 °C
17.08.2026 20:00 15,5 °C 24,3 °C 14,7 °C 81 % 77 % 1012,4 hPa 0,00 l/m² 51,3 km/h (7 Bft) S-SW 195 ° 0 min 790 lux 5 W/m² 12,3 °C
17.08.2026 20:15 15,3 °C 24,3 °C 14,6 °C 81 % 82 % 1013,5 hPa 0,00 l/m² 51,3 km/h (7 Bft) S-SW 195 ° 0 min 664 lux 4 W/m² 12,1 °C
17.08.2026 20:30 15,0 °C 24,3 °C 14,4 °C 81 % 82 % 1012,5 hPa 0,00 l/m² 51,3 km/h (7 Bft) S-SW 195 ° 0 min 786 lux 5 W/m² 11,8 °C
17.08.2026 20:45 14,9 °C 24,3 °C 14,1 °C 81 % 85 % 1012,5 hPa 0,00 l/m² 51,3 km/h (7 Bft) S-SW 195 ° 0 min 423 lux 0 W/m² 11,7 °C
17.08.2026 21:00 14,8 °C 24,3 °C 13,9 °C 81 % 87 % 1013,6 hPa 0,00 l/m² 51,3 km/h (7 Bft) S-SW 195 ° 0 min 96 lux 0 W/m² 11,6 °C
17.08.2026 21:15 14,9 °C 24,3 °C 13,7 °C 81 % 88 % 1013,5 hPa 0,00 l/m² 51,3 km/h (7 Bft) S-SW 195 ° 0 min 17 lux 0 W/m² 11,7 °C
17.08.2026 21:30 14,8 °C 24,3 °C 13,4 °C 81 % 88 % 1013,6 hPa 0,00 l/m² 51,3 km/h (7 Bft) S-SW 195 ° 0 min 0 lux 0 W/m² 11,6 °C
17.08.2026 21:45 14,7 °C 24,3 °C 13,3 °C 80 % 89 % 1013,6 hPa 0,00 l/m² 51,3 km/h (7 Bft) S-SW 195 ° 0 min 0 lux 0 W/m² 11,3 °C
17.08.2026 22:00 14,6 °C 24,3 °C 13,4 °C 81 % 89 % 1013,6 hPa 0,00 l/m² 51,3 km/h (7 Bft) S-SW 195 ° 0 min 0 lux 0 W/m² 11,4 °C
17.08.2026 22:15 14,6 °C 24,3 °C 13,3 °C 81 % 89 % 1013,6 hPa 0,00 l/m² 51,3 km/h (7 Bft) S-SW 195 ° 0 min 0 lux 0 W/m² 11,4 °C
17.08.2026 22:30 14,6 °C 24,3 °C 13,1 °C 81 % 90 % 1013,6 hPa 0,00 l/m² 51,3 km/h (7 Bft) S-SW 195 ° 0 min 0 lux 0 W/m² 11,4 °C
17.08.2026 22:45 14,2 °C 24,3 °C 12,8 °C 81 % 90 % 1013,6 hPa 0,00 l/m² 51,3 km/h (7 Bft) S-SW 195 ° 0 min 0 lux 0 W/m² 11,0 °C
17.08.2026 23:00 14,2 °C 24,3 °C 12,9 °C 81 % 90 % 1013,6 hPa 0,00 l/m² 51,3 km/h (7 Bft) S-SW 195 ° 0 min 0 lux 0 W/m² 11,0 °C
_ Min-Zeit 06:15 00:00 22:45 00:00 11:15 11:45 - 00:00 - - - - - 06:15
Minimum _ 13,5 °C 24,3 °C 12,8 °C 64 % 40 % 1012,1 hPa - 51,3 km/h (7 Bft) - - - - - 9,9 °C
_ Max-Zeit 11:15 00:00 11:30 17:15 22:30 22:45 18:15 00:00 - - 00:00 15:00 15:00 11:00
Maximum _ 19,2 °C 24,3 °C 21,1 °C 81 % 90 % 1013,6 hPa 0,22 l/m² 51,3 km/h
S-SW (7 Bft)
- - 0 min 37,7 klux 246 W/m² 13,1 °C
Durchschnitt _ 16,2 °C 24,3 °C 15,9 °C 75 % 59 % 1012,9 hPa #0,22 l/m² 51,3 km/h (7 Bft) S-SW - #0 min. 7,53 klux 79 W/m² 11,7 °C